Regional Weather Roundup
Issued by NWS

Home | Current Version | Previous Version | Text Only | Print | Product List | Glossary Off
Versions: 1 2 3 4 5 6 7 8 9 10 11 12 13 14 15 16 17 18 19 20 21 22 23 24 25 26 27 28 29 30 31 32 33 34 35 36 37 38 39 40 41 42 43 44 45 46 47 48 49 50

000
ASUS43 KLSX 050507
RWRMO

WEATHER SUMMARY FOR MISSOURI
NATIONAL WEATHER SERVICE SPRINGFIELD MO
1200 AM CDT TUE MAY 05 2015

NOTE: "FAIR" INDICATES FEW OR NO CLOUDS BELOW 12,000 FEET WITH NO
       SIGNIFICANT WEATHER AND/OR OBSTRUCTIONS TO VISIBILITY.
       CURRENT SKY AND/OR WEATHER CONDITIONS ARE NOT AVAILABLE FOR
       CHILLICOTHE AND FARMINGTON.

MOZ001>031-035>038-043-044-053-054-050600-
...NORTHERN AND WESTERN MISSOURI...

CITY           SKY/WX    TMP DP  RH WIND       PRES   REMARKS
KANSAS CTY INT LGT RAIN  62  61  96 CALM      30.11F
KANSAS C DTWN  LGT RAIN  64  61  90 SE5       30.11F
LEE`S SUMMIT   LGT RAIN  63  61  93 N5        30.12R
ST JOSEPH      RAIN      63  60  90 W5        30.09F FOG
CHILLICOTHE      N/A     63  61  93 CALM      30.09R
KIRKSVILLE     CLOUDY    64  62  93 N7        30.10S

$$
MOZ066>068-077>081-088>096-101>105-050600-
...SOUTHWEST MISSOURI...

CITY           SKY/WX    TMP DP  RH WIND       PRES   REMARKS
SPRINGFIELD    PTCLDY    66  54  65 S8        30.14R
JOPLIN         FAIR      66  55  67 SE6       30.13R

$$
MOZ032>034-039>042-045>050-055>058-069>072-050600-
...CENTRAL MISSOURI...

CITY           SKY/WX    TMP DP  RH WIND       PRES   REMARKS
COLUMBIA       CLOUDY    69  58  67 S9        30.10R
JEFFERSON CITY CLOUDY    71  56  58 S5        30.10R
ROLLA          MOCLDY    69  55  60 S12       30.13R
SEDALIA        CLOUDY    72  61  68 SW7       30.10S
WHITEMAN AFB   CLOUDY    69  62  79 NW1       30.09R
WARRENSBURG    CLOUDY    64  59  82 CALM      30.10R
OSAGE BEACH    MOCLDY    66  55  68 S5        30.12R

$$
MOZ051-052-059>065-050600-
...EAST CENTRAL MISSOURI...

CITY           SKY/WX    TMP DP  RH WIND       PRES   REMARKS
ST LOUIS INTL  MOCLDY    76  53  44 S13       30.12R
SPIRIT OF STL  MOCLDY    73  54  51 S8        30.10R
ST CHARLES     CLOUDY    73  54  51 S10       30.10R

$$
MOZ072>076-082>087-097>100-106>115-050600-
...SOUTH CENTRAL AND SOUTHEAST MISSOURI...

CITY           SKY/WX    TMP DP  RH WIND       PRES   REMARKS
CAPE GIRARDEAU CLEAR     63  54  72 SE6       30.17R
FARMINGTON     PTCLDY    63  54  72 SE6       30.21R
POPLAR BLUFF   CLEAR     61  54  77 N3        30.16R
WEST PLAINS    CLEAR     68  53  58 S6        30.18R

$$



USA.gov is the U.S. government's official web portal to all federal, state and local government web resources and services.